Time,TemperatureF,DewpointF,PressureIn,WindDirection,WindDirectionDegrees,WindSpeedMPH,WindSpeedGustMPH,Humidity,HourlyPrecipIn,Conditions,Clouds,dailyrainin,SoftwareType,DateUTC
2013-07-12 00:05:00,47.2,-8.9,30.02,North,355,0.0,2.0,9,0.00,,,0.00,Wunderground v.1.15,2013-07-12 07:05:00,
2013-07-12 00:10:00,47.2,-49.2,30.02,North,354,0.0,2.0,1,0.00,,,0.00,Wunderground v.1.15,2013-07-12 07:10:00,
2013-07-12 00:15:00,47.1,-99.9,30.02,NNW,338,1.0,2.0,0,0.00,,,0.00,Wunderground v.1.15,2013-07-12 07:15:00,
2013-07-12 00:24:00,46.8,-99.9,30.02,NNW,337,0.0,2.0,0,0.00,,,0.00,Wunderground v.1.15,2013-07-12 07:24:00,
2013-07-12 00:30:00,46.7,-99.9,30.02,NNW,340,0.0,2.0,0,0.00,,,0.00,Wunderground v.1.15,2013-07-12 07:30:00,
2013-07-12 00:35:00,46.5,-99.9,30.02,NNE,13,0.0,2.0,0,0.00,,,0.00,Wunderground v.1.15,2013-07-12 07:35:00,
2013-07-12 00:44:00,46.4,-99.9,30.02,North,354,0.0,2.0,0,0.00,,,0.00,Wunderground v.1.15,2013-07-12 07:44:00,
2013-07-12 00:49:00,46.3,-99.9,30.02,North,354,0.0,2.0,0,0.00,,,0.00,Wunderground v.1.15,2013-07-12 07:49:00,
2013-07-12 00:54:00,46.2,-99.9,30.02,North,354,0.0,2.0,0,0.00,,,0.00,Wunderground v.1.15,2013-07-12 07:54:00,
2013-07-12 01:00:00,46.0,-99.9,30.02,North,355,1.0,1.0,0,0.00,,,0.00,Wunderground v.1.15,2013-07-12 08:00:00,
2013-07-12 01:09:00,45.9,-99.9,30.02,NNE,18,0.0,2.0,0,0.00,,,0.00,Wunderground v.1.15,2013-07-12 08:09:00,
2013-07-12 01:14:00,45.8,-99.9,30.02,North,4,0.0,2.0,0,0.00,,,0.00,Wunderground v.1.15,2013-07-12 08:14:00,
2013-07-12 01:20:00,45.7,-99.9,30.02,North,351,0.0,2.0,0,0.00,,,0.00,Wunderground v.1.15,2013-07-12 08:20:00,
2013-07-12 01:25:00,45.7,-99.9,30.02,NNW,332,0.0,2.0,0,0.00,,,0.00,Wunderground v.1.15,2013-07-12 08:25:00,
2013-07-12 01:34:00,45.5,-99.9,30.02,North,349,0.0,2.0,0,0.00,,,0.00,Wunderground v.1.15,2013-07-12 08:34:00,
2013-07-12 01:39:00,45.4,-99.9,30.02,NNW,348,0.0,2.0,0,0.00,,,0.00,Wunderground v.1.15,2013-07-12 08:39:00,
2013-07-12 01:45:00,45.3,-99.9,30.02,NNW,348,0.0,2.0,0,0.00,,,0.00,Wunderground v.1.15,2013-07-12 08:45:00,
2013-07-12 01:50:00,45.1,-99.9,30.02,North,349,0.0,2.0,0,0.00,,,0.00,Wunderground v.1.15,2013-07-12 08:50:00,
2013-07-12 01:55:00,44.9,-99.9,30.02,North,349,0.0,2.0,0,0.00,,,0.00,Wunderground v.1.15,2013-07-12 08:55:00,
2013-07-12 02:04:00,45.0,-99.9,30.02,North,360,0.0,2.0,0,0.00,,,0.00,Wunderground v.1.15,2013-07-12 09:04:00,
2013-07-12 02:10:00,45.0,-99.9,30.02,North,360,0.0,2.0,0,0.00,,,0.00,Wunderground v.1.15,2013-07-12 09:10:00,
2013-07-12 02:15:00,45.0,-99.9,30.02,NNE,20,0.0,2.0,0,0.00,,,0.00,Wunderground v.1.15,2013-07-12 09:15:00,
2013-07-12 02:24:00,45.3,-99.9,30.02,NNE,20,1.0,2.0,0,0.00,,,0.00,Wunderground v.1.15,2013-07-12 09:24:00,
2013-07-12 02:30:00,45.4,-99.9,30.02,NNE,20,1.0,1.0,0,0.00,,,0.00,Wunderground v.1.15,2013-07-12 09:30:00,
2013-07-12 02:35:00,45.4,-99.9,30.02,NNE,27,1.0,2.0,0,0.00,,,0.00,Wunderground v.1.15,2013-07-12 09:35:00,
2013-07-12 02:44:00,45.7,-99.9,30.01,NNE,25,1.0,2.0,0,0.00,,,0.00,Wunderground v.1.15,2013-07-12 09:44:00,
2013-07-12 02:49:00,45.6,-99.9,30.01,NNE,25,0.0,2.0,0,0.00,,,0.00,Wunderground v.1.15,2013-07-12 09:49:00,
2013-07-12 02:54:00,45.5,-99.9,30.01,NNE,25,0.0,2.0,0,0.00,,,0.00,Wunderground v.1.15,2013-07-12 09:54:00,
2013-07-12 03:00:00,45.5,-99.9,30.01,NNE,26,0.0,2.0,0,0.00,,,0.00,Wunderground v.1.15,2013-07-12 10:00:00,
2013-07-12 03:05:00,45.5,-99.9,30.01,NNE,26,0.0,2.0,0,0.00,,,0.00,Wunderground v.1.15,2013-07-12 10:05:00,
2013-07-12 03:14:00,45.8,-99.9,30.02,NNE,25,0.0,2.0,0,0.00,,,0.00,Wunderground v.1.15,2013-07-12 10:14:00,
2013-07-12 03:19:00,45.8,-99.9,30.02,NNE,26,0.0,2.0,0,0.00,,,0.00,Wunderground v.1.15,2013-07-12 10:19:00,
2013-07-12 03:24:00,45.9,-99.9,30.02,NNE,26,0.0,2.0,0,0.00,,,0.00,Wunderground v.1.15,2013-07-12 10:24:00,
2013-07-12 03:30:00,46.0,-99.9,30.01,NNE,26,0.0,2.0,0,0.00,,,0.00,Wunderground v.1.15,2013-07-12 10:30:00,
2013-07-12 03:39:00,46.0,-99.9,30.01,NNE,25,0.0,2.0,0,0.00,,,0.00,Wunderground v.1.15,2013-07-12 10:39:00,
2013-07-12 03:44:00,46.1,-99.9,30.01,NNE,26,0.0,2.0,0,0.00,,,0.00,Wunderground v.1.15,2013-07-12 10:44:00,
2013-07-12 03:50:00,46.1,-99.9,30.02,NNE,26,0.0,2.0,0,0.00,,,0.00,Wunderground v.1.15,2013-07-12 10:50:00,
2013-07-12 03:55:00,46.3,-99.9,30.01,NNE,25,0.0,2.0,0,0.00,,,0.00,Wunderground v.1.15,2013-07-12 10:55:00,
2013-07-12 04:00:00,46.5,-99.9,30.01,ENE,77,0.0,2.0,0,0.00,,,0.00,Wunderground v.1.15,2013-07-12 11:00:00,
2013-07-12 04:09:00,46.8,-99.9,30.01,NE,44,0.0,2.0,0,0.00,,,0.00,Wunderground v.1.15,2013-07-12 11:09:00,
2013-07-12 04:15:00,46.9,-99.9,30.01,NE,44,0.0,2.0,0,0.00,,,0.00,Wunderground v.1.15,2013-07-12 11:15:00,
2013-07-12 04:20:00,47.0,-99.9,30.01,NE,44,0.0,2.0,0,0.00,,,0.00,Wunderground v.1.15,2013-07-12 11:20:00,
2013-07-12 04:29:00,47.0,-99.9,30.01,NE,44,0.0,2.0,0,0.00,,,0.00,Wunderground v.1.15,2013-07-12 11:29:00,
2013-07-12 04:34:00,47.0,-99.9,30.01,NE,44,0.0,2.0,0,0.00,,,0.00,Wunderground v.1.15,2013-07-12 11:34:00,
2013-07-12 04:39:00,47.1,-99.9,30.01,NE,44,0.0,2.0,0,0.00,,,0.00,Wunderground v.1.15,2013-07-12 11:39:00,
2013-07-12 04:45:00,47.2,-99.9,30.01,NE,44,0.0,2.0,0,0.00,,,0.00,Wunderground v.1.15,2013-07-12 11:45:00,
2013-07-12 04:50:00,47.2,-99.9,30.01,NE,44,0.0,2.0,0,0.00,,,0.00,Wunderground v.1.15,2013-07-12 11:50:00,
2013-07-12 04:59:00,47.2,-99.9,30.01,NE,44,0.0,2.0,0,0.00,,,0.00,Wunderground v.1.15,2013-07-12 11:59:00,
2013-07-12 05:04:00,47.4,-99.9,30.01,NE,44,0.0,2.0,0,0.00,,,0.00,Wunderground v.1.15,2013-07-12 12:04:00,
2013-07-12 05:09:00,47.6,-99.9,30.01,NE,53,0.0,2.0,0,0.00,,,0.00,Wunderground v.1.15,2013-07-12 12:09:00,
2013-07-12 05:15:00,47.7,-99.9,30.01,NE,48,0.0,2.0,0,0.00,,,0.00,Wunderground v.1.15,2013-07-12 12:15:00,
2013-07-12 05:20:00,47.9,-99.9,30.01,North,355,0.0,2.0,0,0.00,,,0.00,Wunderground v.1.15,2013-07-12 12:20:00,
2013-07-12 05:29:00,47.9,-10.8,30.01,North,357,0.0,2.0,8,0.00,,,0.00,Wunderground v.1.15,2013-07-12 12:29:00,
2013-07-12 05:34:00,48.0,-13.4,30.01,NW,321,0.0,2.0,7,0.00,,,0.00,Wunderground v.1.15,2013-07-12 12:34:00,
2013-07-12 05:40:00,48.0,-4.1,30.01,North,7,0.0,2.0,11,0.00,,,0.00,Wunderground v.1.15,2013-07-12 12:40:00,
2013-07-12 05:45:00,48.0,-8.3,30.01,North,7,0.0,2.0,9,0.00,,,0.00,Wunderground v.1.15,2013-07-12 12:45:00,
2013-07-12 05:54:00,47.9,-36.9,30.01,North,8,0.0,2.0,2,0.00,,,0.00,Wunderground v.1.15,2013-07-12 12:54:00,
2013-07-12 05:59:00,47.9,-48.8,30.01,North,352,0.0,2.0,1,0.00,,,0.00,Wunderground v.1.15,2013-07-12 12:59:00,
2013-07-12 06:05:00,47.9,-99.9,30.01,NNE,18,0.0,2.0,0,0.00,,,0.00,Wunderground v.1.15,2013-07-12 13:05:00,
2013-07-12 06:14:00,48.0,-99.9,30.01,NNE,18,0.0,2.0,0,0.00,,,0.00,Wunderground v.1.15,2013-07-12 13:14:00,
2013-07-12 06:19:00,48.1,-99.9,30.01,NNE,20,0.0,2.0,0,0.00,,,0.00,Wunderground v.1.15,2013-07-12 13:19:00,
2013-07-12 06:24:00,48.2,-99.9,30.01,NNE,20,0.0,2.0,0,0.00,,,0.00,Wunderground v.1.15,2013-07-12 13:24:00,
2013-07-12 06:29:00,48.4,-36.6,30.00,NNE,20,0.0,2.0,2,0.00,,,0.00,Wunderground v.1.15,2013-07-12 13:29:00,
2013-07-12 06:35:00,48.5,-19.6,30.00,NNE,22,0.0,2.0,5,0.00,,,0.00,Wunderground v.1.15,2013-07-12 13:35:00,
2013-07-12 06:44:00,49.0,-3.3,30.01,NNE,15,0.0,2.0,11,0.00,,,0.00,Wunderground v.1.15,2013-07-12 13:44:00,
2013-07-12 06:49:00,49.2,8.6,30.01,NNE,14,0.0,2.0,19,0.00,,,0.00,Wunderground v.1.15,2013-07-12 13:49:00,
2013-07-12 06:54:00,49.7,18.7,30.01,NNE,12,0.0,2.0,29,0.00,,,0.00,Wunderground v.1.15,2013-07-12 13:54:00,
2013-07-12 07:00:00,50.0,18.1,30.01,NNE,12,0.0,2.0,28,0.00,,,0.00,Wunderground v.1.15,2013-07-12 14:00:00,
2013-07-12 07:05:00,50.3,24.3,30.01,NNE,12,0.0,2.0,36,0.00,,,0.00,Wunderground v.1.15,2013-07-12 14:05:00,
2013-07-12 07:14:00,50.9,38.3,30.01,SW,226,0.0,2.0,62,0.00,,,0.00,Wunderground v.1.15,2013-07-12 14:14:00,
2013-07-12 07:19:00,51.2,35.1,30.01,South,184,1.0,2.0,54,0.00,,,0.00,Wunderground v.1.15,2013-07-12 14:19:00,
2013-07-12 07:25:00,51.2,35.1,30.01,South,184,1.0,2.0,54,0.00,,,0.00,Wunderground v.1.15,2013-07-12 14:25:00,
2013-07-12 07:30:00,51.3,35.2,30.01,SSW,198,0.0,2.0,54,0.00,,,0.00,Wunderground v.1.15,2013-07-12 14:30:00,
2013-07-12 07:35:00,51.0,37.2,30.01,SW,214,0.0,2.0,59,0.00,,,0.00,Wunderground v.1.15,2013-07-12 14:35:00,
2013-07-12 07:44:00,51.6,38.2,30.01,SSW,207,1.0,2.0,60,0.00,,,0.00,Wunderground v.1.15,2013-07-12 14:44:00,
2013-07-12 07:49:00,52.0,37.2,30.01,SW,219,2.0,2.0,57,0.00,,,0.00,Wunderground v.1.15,2013-07-12 14:49:00,
2013-07-12 07:55:00,52.9,36.2,30.01,SE,143,1.0,2.0,53,0.00,,,0.00,Wunderground v.1.15,2013-07-12 14:55:00,
2013-07-12 08:00:00,53.4,39.9,30.01,SW,236,1.0,1.0,60,0.00,,,0.00,Wunderground v.1.15,2013-07-12 15:00:00,
2013-07-12 08:09:00,54.3,43.2,30.01,South,184,0.0,2.0,66,0.00,,,0.00,Wunderground v.1.15,2013-07-12 15:09:00,
2013-07-12 08:14:00,54.8,45.2,30.01,SSW,210,1.0,2.0,70,0.00,,,0.00,Wunderground v.1.15,2013-07-12 15:14:00,
2013-07-12 08:19:00,55.3,46.8,30.01,SW,214,1.0,2.0,73,0.00,,,0.00,Wunderground v.1.15,2013-07-12 15:19:00,
2013-07-12 08:25:00,55.2,47.1,30.01,SW,222,1.0,2.0,74,0.00,,,0.00,Wunderground v.1.15,2013-07-12 15:25:00,
2013-07-12 08:30:00,56.3,48.1,30.00,SSE,150,1.0,2.0,74,0.00,,,0.00,Wunderground v.1.15,2013-07-12 15:30:00,
2013-07-12 08:39:00,57.4,49.5,30.00,West,274,0.0,2.0,75,0.00,,,0.00,Wunderground v.1.15,2013-07-12 15:39:00,
2013-07-12 08:44:00,58.0,49.8,30.01,SE,127,0.0,2.0,74,0.00,,,0.00,Wunderground v.1.15,2013-07-12 15:44:00,
2013-07-12 08:49:00,58.2,50.0,30.00,SW,236,0.0,2.0,74,0.00,,,0.00,Wunderground v.1.15,2013-07-12 15:49:00,
2013-07-12 08:55:00,58.3,50.4,30.00,SW,219,1.0,2.0,75,0.00,,,0.00,Wunderground v.1.15,2013-07-12 15:55:00,
2013-07-12 09:00:00,58.8,50.9,30.00,SE,146,0.0,2.0,75,0.00,,,0.00,Wunderground v.1.15,2013-07-12 16:00:00,
2013-07-12 09:09:00,58.0,50.1,30.00,SW,217,1.0,2.0,75,0.00,,,0.00,Wunderground v.1.15,2013-07-12 16:09:00,
2013-07-12 09:14:00,57.7,49.8,30.00,WSW,242,2.0,2.0,75,0.00,,,0.00,Wunderground v.1.15,2013-07-12 16:14:00,
2013-07-12 09:19:00,57.3,49.4,30.00,SW,236,2.0,2.0,75,0.00,,,0.00,Wunderground v.1.15,2013-07-12 16:19:00,
2013-07-12 09:25:00,57.4,49.5,30.01,SE,127,2.0,2.0,75,0.00,,,0.00,Wunderground v.1.15,2013-07-12 16:25:00,
2013-07-12 09:34:00,57.7,49.8,30.00,SSE,160,1.0,2.0,75,0.00,,,0.00,Wunderground v.1.15,2013-07-12 16:34:00,
2013-07-12 09:39:00,57.8,49.9,30.00,SE,146,1.0,2.0,75,0.00,,,0.00,Wunderground v.1.15,2013-07-12 16:39:00,
2013-07-12 09:45:00,57.8,49.6,30.00,South,174,2.0,2.0,74,0.00,,,0.00,Wunderground v.1.15,2013-07-12 16:45:00,
2013-07-12 09:50:00,57.8,49.6,30.00,South,188,1.0,2.0,74,0.00,,,0.00,Wunderground v.1.15,2013-07-12 16:50:00,
2013-07-12 09:55:00,58.1,49.5,30.00,WSW,253,1.0,2.0,73,0.00,,,0.00,Wunderground v.1.15,2013-07-12 16:55:00,
2013-07-12 10:04:00,59.2,50.5,30.00,SSW,204,1.0,2.0,73,0.00,,,0.00,Wunderground v.1.15,2013-07-12 17:04:00,
2013-07-12 10:09:00,59.5,50.5,30.00,SSE,164,1.0,2.0,72,0.00,,,0.00,Wunderground v.1.15,2013-07-12 17:09:00,
2013-07-12 10:15:00,59.7,50.7,30.00,ESE,121,1.0,2.0,72,0.00,,,0.00,Wunderground v.1.15,2013-07-12 17:15:00,
2013-07-12 10:20:00,59.8,50.4,30.00,SW,217,1.0,3.0,71,0.00,,,0.00,Wunderground v.1.15,2013-07-12 17:20:00,
2013-07-12 10:30:00,59.9,50.5,30.00,SSE,154,1.0,2.0,71,0.00,,,0.00,Wunderground v.1.15,2013-07-12 17:30:00,
2013-07-12 10:40:00,60.1,50.7,30.00,WSW,256,1.0,2.0,71,0.00,,,0.00,Wunderground v.1.15,2013-07-12 17:40:00,
2013-07-12 10:49:00,60.3,50.9,30.00,SE,141,1.0,3.0,71,0.00,,,0.00,Wunderground v.1.15,2013-07-12 17:49:00,
2013-07-12 10:54:00,60.4,51.3,30.01,SSE,166,2.0,3.0,72,0.00,,,0.00,Wunderground v.1.15,2013-07-12 17:54:00,
2013-07-12 11:00:00,60.2,50.4,30.01,West,264,2.0,2.0,70,0.00,,,0.00,Wunderground v.1.15,2013-07-12 18:00:00,
2013-07-12 11:10:00,60.0,50.9,30.01,SSW,202,1.0,2.0,72,0.00,,,0.00,Wunderground v.1.15,2013-07-12 18:10:00,
2013-07-12 11:19:00,60.5,51.4,30.01,West,263,1.0,2.0,72,0.00,,,0.00,Wunderground v.1.15,2013-07-12 18:19:00,
2013-07-12 11:25:00,60.3,50.9,30.01,WSW,242,1.0,2.0,71,0.00,,,0.00,Wunderground v.1.15,2013-07-12 18:25:00,
2013-07-12 11:30:00,60.5,51.8,30.01,South,188,1.0,2.0,73,0.00,,,0.00,Wunderground v.1.15,2013-07-12 18:30:00,
2013-07-12 11:39:00,60.5,51.4,30.01,West,273,1.0,2.0,72,0.00,,,0.00,Wunderground v.1.15,2013-07-12 18:39:00,
2013-07-12 11:45:00,60.2,50.4,30.02,SW,225,2.0,4.0,70,0.00,,,0.00,Wunderground v.1.15,2013-07-12 18:45:00,
2013-07-12 11:50:00,60.0,50.2,30.02,SSW,202,2.0,2.0,70,0.00,,,0.00,Wunderground v.1.15,2013-07-12 18:50:00,
2013-07-12 11:59:00,60.2,50.4,30.02,ESE,110,1.0,2.0,70,0.00,,,0.00,Wunderground v.1.15,2013-07-12 18:59:00,
2013-07-12 12:04:00,60.1,50.7,30.02,SE,134,2.0,2.0,71,0.00,,,0.00,Wunderground v.1.15,2013-07-12 19:04:00,
2013-07-12 12:10:00,60.4,51.0,30.03,SE,141,2.0,2.0,71,0.00,,,0.00,Wunderground v.1.15,2013-07-12 19:10:00,
2013-07-12 12:19:00,61.9,52.4,30.03,SSE,167,2.0,3.0,71,0.00,,,0.00,Wunderground v.1.15,2013-07-12 19:19:00,
2013-07-12 12:24:00,62.5,53.0,30.03,SSE,147,3.0,3.0,71,0.00,,,0.00,Wunderground v.1.15,2013-07-12 19:24:00,
2013-07-12 12:29:00,63.3,53.0,30.03,SE,134,3.0,4.0,69,0.00,,,0.00,Wunderground v.1.15,2013-07-12 19:29:00,
2013-07-12 12:35:00,63.7,53.7,30.03,SE,133,2.0,4.0,70,0.00,,,0.00,Wunderground v.1.15,2013-07-12 19:35:00,
2013-07-12 12:44:00,64.4,53.2,30.03,ENE,68,3.0,4.0,67,0.00,,,0.00,Wunderground v.1.15,2013-07-12 19:44:00,
2013-07-12 12:49:00,64.4,53.2,30.03,SW,224,3.0,3.0,67,0.00,,,0.00,Wunderground v.1.15,2013-07-12 19:49:00,
2013-07-12 12:54:00,64.8,54.0,30.02,SE,130,2.0,3.0,68,0.00,,,0.00,Wunderground v.1.15,2013-07-12 19:54:00,
2013-07-12 13:00:00,65.4,54.2,30.02,WSW,241,2.0,2.0,67,0.00,,,0.00,Wunderground v.1.15,2013-07-12 20:00:00,
2013-07-12 13:05:00,65.8,54.5,30.02,SW,226,2.0,4.0,67,0.00,,,0.00,Wunderground v.1.15,2013-07-12 20:05:00,
2013-07-12 13:14:00,65.8,53.7,30.02,ESE,110,3.0,4.0,65,0.00,,,0.00,Wunderground v.1.15,2013-07-12 20:14:00,
2013-07-12 13:19:00,66.2,54.5,30.02,SSW,205,3.0,3.0,66,0.00,,,0.00,Wunderground v.1.15,2013-07-12 20:19:00,
2013-07-12 13:24:00,66.3,54.2,30.02,ESE,118,3.0,3.0,65,0.00,,,0.00,Wunderground v.1.15,2013-07-12 20:24:00,
2013-07-12 13:30:00,66.8,56.3,30.02,SSW,198,3.0,5.0,69,0.00,,,0.00,Wunderground v.1.15,2013-07-12 20:30:00,
2013-07-12 13:39:00,66.4,53.8,30.02,SW,229,3.0,3.0,64,0.00,,,0.00,Wunderground v.1.15,2013-07-12 20:39:00,
2013-07-12 13:45:00,66.0,53.9,30.02,SSW,198,3.0,4.0,65,0.00,,,0.00,Wunderground v.1.15,2013-07-12 20:45:00,
2013-07-12 13:54:00,66.0,53.9,30.02,South,175,3.0,3.0,65,0.00,,,0.00,Wunderground v.1.15,2013-07-12 20:54:00,
2013-07-12 14:00:00,66.8,55.5,30.02,NE,37,2.0,4.0,67,0.00,,,0.00,Wunderground v.1.15,2013-07-12 21:00:00,
2013-07-12 14:05:00,67.5,55.7,30.01,WSW,243,2.0,4.0,66,0.00,,,0.00,Wunderground v.1.15,2013-07-12 21:05:00,
2013-07-12 14:15:00,67.9,56.5,30.02,WSW,240,3.0,3.0,67,0.00,,,0.00,Wunderground v.1.15,2013-07-12 21:15:00,
2013-07-12 14:20:00,68.4,55.7,30.01,SW,225,2.0,2.0,64,0.00,,,0.00,Wunderground v.1.15,2013-07-12 21:20:00,
2013-07-12 14:29:00,67.9,54.4,30.01,SW,236,2.0,2.0,62,0.00,,,0.00,Wunderground v.1.15,2013-07-12 21:29:00,
2013-07-12 14:35:00,67.3,54.7,30.02,South,170,3.0,3.0,64,0.00,,,0.00,Wunderground v.1.15,2013-07-12 21:35:00,
2013-07-12 14:44:00,66.9,54.3,30.02,SW,221,3.0,3.0,64,0.00,,,0.00,Wunderground v.1.15,2013-07-12 21:44:00,
2013-07-12 14:49:00,66.9,55.6,30.02,SW,217,2.0,2.0,67,0.00,,,0.00,Wunderground v.1.15,2013-07-12 21:49:00,
2013-07-12 14:55:00,66.9,55.6,30.02,WSW,246,1.0,2.0,67,0.00,,,0.00,Wunderground v.1.15,2013-07-12 21:55:00,
2013-07-12 15:05:00,66.7,54.6,30.03,West,280,2.0,2.0,65,0.00,,,0.00,Wunderground v.1.15,2013-07-12 22:05:00,
2013-07-12 15:14:00,66.2,54.1,30.03,SW,234,2.0,2.0,65,0.00,,,0.00,Wunderground v.1.15,2013-07-12 22:14:00,
2013-07-12 15:19:00,66.2,55.3,30.02,ESE,113,2.0,2.0,68,0.00,,,0.00,Wunderground v.1.15,2013-07-12 22:19:00,
2013-07-12 15:25:00,66.1,55.6,30.03,SW,219,2.0,2.0,69,0.00,,,0.00,Wunderground v.1.15,2013-07-12 22:25:00,
2013-07-12 15:30:00,65.8,55.3,30.02,SE,124,2.0,3.0,69,0.00,,,0.00,Wunderground v.1.15,2013-07-12 22:30:00,
2013-07-12 15:39:00,65.6,54.8,30.02,SSW,204,2.0,3.0,68,0.00,,,0.00,Wunderground v.1.15,2013-07-12 22:39:00,
2013-07-12 15:44:00,65.6,55.5,30.02,WSW,239,2.0,3.0,70,0.00,,,0.00,Wunderground v.1.15,2013-07-12 22:44:00,
2013-07-12 15:50:00,65.6,54.8,30.02,WSW,255,2.0,2.0,68,0.00,,,0.00,Wunderground v.1.15,2013-07-12 22:50:00,
2013-07-12 15:59:00,65.1,54.7,30.02,SSW,205,2.0,2.0,69,0.00,,,0.00,Wunderground v.1.15,2013-07-12 22:59:00,
2013-07-12 16:04:00,65.0,54.6,30.02,SW,217,2.0,2.0,69,0.00,,,0.00,Wunderground v.1.15,2013-07-12 23:04:00,
2013-07-12 16:09:00,65.1,54.7,30.02,SW,221,1.0,2.0,69,0.00,,,0.00,Wunderground v.1.15,2013-07-12 23:09:00,
2013-07-12 16:14:00,65.1,55.1,30.03,SSE,156,2.0,2.0,70,0.00,,,0.00,Wunderground v.1.15,2013-07-12 23:14:00,
2013-07-12 16:20:00,64.9,54.9,30.03,SSE,149,2.0,2.0,70,0.00,,,0.00,Wunderground v.1.15,2013-07-12 23:20:00,
2013-07-12 16:30:00,65.1,55.1,30.03,SW,219,1.0,2.0,70,0.00,,,0.00,Wunderground v.1.15,2013-07-12 23:30:00,
2013-07-12 16:40:00,65.4,55.0,30.03,SW,224,2.0,2.0,69,0.00,,,0.00,Wunderground v.1.15,2013-07-12 23:40:00,
2013-07-12 16:49:00,66.1,54.8,30.03,SSE,158,2.0,2.0,67,0.00,,,0.00,Wunderground v.1.15,2013-07-12 23:49:00,
2013-07-12 16:54:00,66.2,54.5,30.03,WSW,252,3.0,3.0,66,0.00,,,0.00,Wunderground v.1.15,2013-07-12 23:54:00,
2013-07-12 16:59:00,66.3,54.2,30.03,WSW,239,2.0,2.0,65,0.00,,,0.00,Wunderground v.1.15,2013-07-12 23:59:00,
2013-07-12 17:04:00,66.6,55.3,30.03,South,190,1.0,3.0,67,0.00,,,0.00,Wunderground v.1.15,2013-07-13 00:04:00,
2013-07-12 17:10:00,66.7,54.1,30.03,ENE,64,1.0,2.0,64,0.00,,,0.00,Wunderground v.1.15,2013-07-13 00:10:00,
2013-07-12 17:20:00,66.7,55.0,30.03,SW,214,1.0,2.0,66,0.00,,,0.00,Wunderground v.1.15,2013-07-13 00:20:00,
2013-07-12 17:25:00,67.2,54.2,30.03,North,9,1.0,2.0,63,0.00,,,0.00,Wunderground v.1.15,2013-07-13 00:25:00,
2013-07-12 17:30:00,67.3,54.3,30.03,West,271,2.0,2.0,63,0.00,,,0.00,Wunderground v.1.15,2013-07-13 00:30:00,
2013-07-12 17:39:00,66.8,54.2,30.03,South,190,2.0,2.0,64,0.00,,,0.00,Wunderground v.1.15,2013-07-13 00:39:00,
2013-07-12 17:44:00,67.0,54.0,30.03,WNW,301,1.0,2.0,63,0.00,,,0.00,Wunderground v.1.15,2013-07-13 00:44:00,
2013-07-12 17:50:00,66.7,54.6,30.03,NE,41,1.0,1.0,65,0.00,,,0.00,Wunderground v.1.15,2013-07-13 00:50:00,
2013-07-12 17:59:00,66.0,53.0,30.03,West,262,1.0,2.0,63,0.00,,,0.00,Wunderground v.1.15,2013-07-13 00:59:00,
2013-07-12 18:04:00,65.9,53.4,30.03,West,263,1.0,2.0,64,0.00,,,0.00,Wunderground v.1.15,2013-07-13 01:04:00,
2013-07-12 18:10:00,66.0,54.3,30.03,SW,217,0.0,2.0,66,0.00,,,0.00,Wunderground v.1.15,2013-07-13 01:10:00,
2013-07-12 18:24:00,65.3,52.8,30.03,SW,225,0.0,3.0,64,0.00,,,0.00,Wunderground v.1.15,2013-07-13 01:24:00,
2013-07-12 18:30:00,65.3,53.6,30.03,SW,225,0.0,2.0,66,0.00,,,0.00,Wunderground v.1.15,2013-07-13 01:30:00,
2013-07-12 18:39:00,64.9,53.7,30.03,WSW,248,0.0,2.0,67,0.00,,,0.00,Wunderground v.1.15,2013-07-13 01:39:00,
2013-07-12 18:44:00,64.9,53.7,30.03,WSW,248,0.0,2.0,67,0.00,,,0.00,Wunderground v.1.15,2013-07-13 01:44:00,
2013-07-12 18:49:00,64.7,53.5,30.03,WSW,242,0.0,2.0,67,0.00,,,0.00,Wunderground v.1.15,2013-07-13 01:49:00,
2013-07-12 18:55:00,64.7,53.1,30.03,SW,221,0.0,2.0,66,0.00,,,0.00,Wunderground v.1.15,2013-07-13 01:55:00,
2013-07-12 19:04:00,64.7,52.7,30.03,WSW,245,0.0,2.0,65,0.00,,,0.00,Wunderground v.1.15,2013-07-13 02:04:00,
2013-07-12 19:09:00,64.6,53.4,30.03,WSW,245,0.0,2.0,67,0.00,,,0.00,Wunderground v.1.15,2013-07-13 02:09:00,
2013-07-12 19:24:00,64.2,52.6,30.04,North,353,0.0,2.0,66,0.00,,,0.00,Wunderground v.1.15,2013-07-13 02:24:00,
2013-07-12 19:40:00,63.8,51.4,30.03,SW,214,1.0,1.0,64,0.00,,,0.00,Wunderground v.1.15,2013-07-13 02:40:00,
2013-07-12 19:50:00,63.7,52.1,30.04,SW,217,0.0,2.0,66,0.00,,,0.00,Wunderground v.1.15,2013-07-13 02:50:00,
2013-07-12 19:59:00,63.7,52.1,30.04,WSW,239,1.0,1.0,66,0.00,,,0.00,Wunderground v.1.15,2013-07-13 02:59:00,
2013-07-12 20:05:00,63.6,52.4,30.04,SSW,211,0.0,2.0,67,0.00,,,0.00,Wunderground v.1.15,2013-07-13 03:05:00,
2013-07-12 20:14:00,63.5,52.7,30.04,West,262,1.0,2.0,68,0.00,,,0.00,Wunderground v.1.15,2013-07-13 03:14:00,
2013-07-12 20:20:00,63.2,52.9,30.04,SW,231,0.0,2.0,69,0.00,,,0.00,Wunderground v.1.15,2013-07-13 03:20:00,
2013-07-12 20:30:00,62.6,54.2,30.04,SW,231,0.0,2.0,74,0.00,,,0.00,Wunderground v.1.15,2013-07-13 03:30:00,
2013-07-12 20:39:00,61.1,53.1,30.04,SW,231,0.0,2.0,75,0.00,,,0.00,Wunderground v.1.15,2013-07-13 03:39:00,
2013-07-12 20:44:00,60.4,52.4,30.04,SW,231,0.0,2.0,75,0.00,,,0.00,Wunderground v.1.15,2013-07-13 03:44:00,
2013-07-12 20:50:00,59.8,51.5,30.04,SW,231,0.0,2.0,74,0.00,,,0.00,Wunderground v.1.15,2013-07-13 03:50:00,
2013-07-12 20:59:00,58.7,50.1,30.05,SE,127,0.0,2.0,73,0.00,,,0.00,Wunderground v.1.15,2013-07-13 03:59:00,
2013-07-12 21:04:00,58.3,49.7,30.05,WNW,287,0.0,2.0,73,0.00,,,0.00,Wunderground v.1.15,2013-07-13 04:04:00,
2013-07-12 21:10:00,58.3,50.4,30.05,West,259,0.0,2.0,75,0.00,,,0.00,Wunderground v.1.15,2013-07-13 04:10:00,
2013-07-12 21:14:00,58.3,50.4,30.06,West,278,1.0,2.0,75,0.00,,,0.00,Wunderground v.1.15,2013-07-13 04:14:00,
2013-07-12 21:19:00,58.1,50.2,30.06,WNW,283,0.0,2.0,75,0.00,,,0.00,Wunderground v.1.15,2013-07-13 04:19:00,
2013-07-12 21:24:00,57.8,49.9,30.06,WNW,287,0.0,2.0,75,0.00,,,0.00,Wunderground v.1.15,2013-07-13 04:24:00,
2013-07-12 21:29:00,57.7,49.8,30.06,WNW,284,0.0,2.0,75,0.00,,,0.00,Wunderground v.1.15,2013-07-13 04:29:00,
2013-07-12 21:35:00,57.6,49.7,30.06,WNW,284,0.0,2.0,75,0.00,,,0.00,Wunderground v.1.15,2013-07-13 04:35:00,
2013-07-12 21:44:00,57.3,49.4,30.07,West,273,1.0,2.0,75,0.00,,,0.00,Wunderground v.1.15,2013-07-13 04:44:00,
2013-07-12 21:49:00,57.0,49.2,30.07,West,278,0.0,2.0,75,0.00,,,0.00,Wunderground v.1.15,2013-07-13 04:49:00,
2013-07-12 21:54:00,56.7,48.9,30.07,West,278,0.0,2.0,75,0.00,,,0.00,Wunderground v.1.15,2013-07-13 04:54:00,
2013-07-12 22:00:00,56.2,48.4,30.07,West,278,0.0,2.0,75,0.00,,,0.00,Wunderground v.1.15,2013-07-13 05:00:00,
2013-07-12 22:05:00,55.9,48.1,30.07,ENE,59,0.0,2.0,75,0.00,,,0.00,Wunderground v.1.15,2013-07-13 05:05:00,
2013-07-12 22:14:00,55.4,45.0,30.07,ESE,105,1.0,2.0,68,0.00,,,0.00,Wunderground v.1.15,2013-07-13 05:14:00,
2013-07-12 22:19:00,54.9,43.7,30.07,ESE,105,0.0,2.0,66,0.00,,,0.00,Wunderground v.1.15,2013-07-13 05:19:00,
2013-07-12 22:25:00,54.4,40.8,30.08,ESE,105,0.0,2.0,60,0.00,,,0.00,Wunderground v.1.15,2013-07-13 05:25:00,
2013-07-12 22:34:00,53.6,34.9,30.08,East,100,0.0,2.0,49,0.00,,,0.00,Wunderground v.1.15,2013-07-13 05:34:00,
2013-07-12 22:39:00,53.1,32.3,30.08,North,351,0.0,2.0,45,0.00,,,0.00,Wunderground v.1.15,2013-07-13 05:39:00,
2013-07-12 22:44:00,52.8,27.2,30.08,North,351,0.0,2.0,37,0.00,,,0.00,Wunderground v.1.15,2013-07-13 05:44:00,
2013-07-12 22:50:00,52.4,24.8,30.08,North,351,0.0,2.0,34,0.00,,,0.00,Wunderground v.1.15,2013-07-13 05:50:00,
2013-07-12 22:59:00,51.7,13.0,30.09,NNE,32,0.0,2.0,21,0.00,,,0.00,Wunderground v.1.15,2013-07-13 05:59:00,
2013-07-12 23:04:00,51.5,6.7,30.09,NNE,31,0.0,2.0,16,0.00,,,0.00,Wunderground v.1.15,2013-07-13 06:04:00,
2013-07-12 23:09:00,51.2,3.5,30.09,NNE,31,0.0,2.0,14,0.00,,,0.00,Wunderground v.1.15,2013-07-13 06:09:00,
2013-07-12 23:15:00,51.0,-3.8,30.09,NNE,32,0.0,2.0,10,0.00,,,0.00,Wunderground v.1.15,2013-07-13 06:15:00,
2013-07-12 23:24:00,50.5,-14.6,30.09,NNE,31,0.0,2.0,6,0.00,,,0.00,Wunderground v.1.15,2013-07-13 06:24:00,
2013-07-12 23:29:00,50.3,-47.3,30.10,NE,36,0.0,2.0,1,0.00,,,0.00,Wunderground v.1.15,2013-07-13 06:29:00,
2013-07-12 23:35:00,50.0,-47.5,30.09,NE,36,0.0,2.0,1,0.00,,,0.00,Wunderground v.1.15,2013-07-13 06:35:00,
2013-07-12 23:44:00,49.8,-99.9,30.10,NE,35,0.0,2.0,0,0.00,,,0.00,Wunderground v.1.15,2013-07-13 06:44:00,
2013-07-12 23:49:00,49.7,-99.9,30.10,NE,36,0.0,2.0,0,0.00,,,0.00,Wunderground v.1.15,2013-07-13 06:49:00,
2013-07-12 23:54:00,49.5,-99.9,30.10,NE,35,0.0,2.0,0,0.00,,,0.00,Wunderground v.1.15,2013-07-13 06:54:00,